W0DXV Weather Reports


Display with metric or nautical units.
time (UTC)temp
F
wind
direction
speed
MPH
gust
MPH
rain 1hr
in
rain 24hr
in
rain mn
in
humidity
%
barometer
mb
20260903091837 70 199 0.0 0.0 0.00 0.00 0.00 99 1013.9
20260903091336 71 199 0.0 0.0 0.00 0.00 0.00 99 1014.0
20260903090832 71 199 0.0 0.0 0.00 0.00 0.00 99 1014.0
20260903090327 71 199 0.0 0.0 0.00 0.00 0.00 99 1014.1
20260903085825 71 199 0.0 0.0 0.00 0.00 0.00 99 1014.0
20260903085324 71 199 0.0 0.0 0.00 0.00 0.00 99 1014.0
20260903084823 71 199 0.0 0.0 0.00 0.00 0.00 99 1013.8
20260903084323 71 199 0.0 0.0 0.00 0.00 0.00 99 1013.9
20260903083818 71 199 0.0 0.0 0.00 0.00 0.00 99 1013.8
20260903083314 71 199 0.0 0.0 0.00 0.00 0.00 99 1013.3
20260903082812 71 199 0.0 0.0 0.00 0.00 0.00 99 1013.7
20260903082308 71 199 0.0 0.0 0.00 0.00 0.00 99 1013.8
20260903081803 71 199 0.0 0.0 0.00 0.00 0.00 99 1013.7
20260903081258 71 199 0.0 0.0 0.00 0.00 0.00 99 1013.6
20260903080755 71 199 0.0 0.0 0.00 0.00 0.00 99 1013.3
20260903080252 71 199 0.0 0.0 0.00 0.00 0.00 99 1013.7
20260903075751 71 199 0.0 0.0 0.00 0.00 0.00 99 1013.4
20260903075247 72 199 0.0 0.0 0.00 0.00 0.00 99 1013.3
20260903074745 72 199 0.0 0.0 0.00 0.00 0.00 99 1013.6
20260903074240 71 199 1.0 1.0 0.00 0.00 0.00 99 1013.6
20260903073736 71 202 0.0 0.0 0.00 0.00 0.00 99 1013.4
20260903073231 71 202 0.0 0.0 0.00 0.00 0.00 99 1013.3
20260903072727 71 202 0.0 0.0 0.00 0.00 0.00 99 1013.2
20260903072218 71 202 0.0 0.0 0.00 0.00 0.00 99 1013.4
20260903071714 71 202 0.0 0.0 0.00 0.00 0.00 99 1013.3
20260903071209 71 202 0.0 0.0 0.00 0.00 0.00 99 1013.4
20260903070709 71 202 0.0 1.0 0.00 0.00 0.00 99 1013.6
20260903070205 72 202 0.0 0.0 0.00 0.00 0.00 99 1013.3
20260903065659 72 202 0.0 0.0 0.00 0.00 0.00 99 1013.6
20260903065153 72 202 0.0 0.0 0.00 0.00 0.00 99 1013.6
20260903064652 72 202 0.0 0.0 0.00 0.00 0.00 99 1013.6
20260903064148 72 202 0.0 0.0 0.00 0.00 0.00 99 1013.6
20260903063644 72 251 0.0 0.0 0.00 0.00 0.00 99 1013.7
20260903063138 72 251 0.0 0.0 0.00 0.00 0.00 99 1013.4
20260903062634 72 251 0.0 0.0 0.00 0.00 0.00 99 1013.3
20260903062129 72 251 0.0 0.0 0.00 0.00 0.00 99 1013.3
20260903061624 72 251 0.0 0.0 0.00 0.00 0.00 99 1013.3
20260903061124 72 251 0.0 0.0 0.00 0.00 0.00 99 1013.4
20260903060619 73 251 0.0 0.0 0.00 0.00 0.00 99 1013.4
20260903060114 72 253 0.0 1.0 0.00 0.00 0.00 99 1013.4
20260903055612 72 249 0.0 0.0 0.00 0.00 0.00 99 1013.4
20260903055110 72 249 0.0 0.0 0.00 0.00 0.00 99 1013.1
20260903054605 72 249 0.0 0.0 0.00 0.00 0.00 98 1013.3
20260903054101 72 249 0.0 0.0 0.00 0.00 0.00 98 1013.3
20260903053556 72 249 0.0 0.0 0.00 0.00 0.00 98 1013.2
20260903053053 72 249 0.0 0.0 0.00 0.00 0.00 98 1013.4
20260903052548 72 249 0.0 0.0 0.00 0.00 0.00 98 1013.4
20260903052044 72 249 0.0 0.0 0.00 0.00 0.00 98 1013.3
20260903051543 72 249 0.0 0.0 0.00 0.00 0.00 98 1013.2
20260903051039 73 249 0.0 0.0 0.00 0.00 0.00 98 1013.3
20260903050538 73 249 0.0 0.0 0.00 0.00 0.00 98 1013.3
20260903050034 73 249 0.0 0.0 0.00 0.00 0.00 98 1013.3
20260903045533 73 249 0.0 0.0 0.00 0.00 0.00 98 1013.2
20260903045030 73 249 0.0 0.0 0.00 0.00 0.00 98 1013.3
20260903044526 73 249 0.0 0.0 0.00 0.00 0.00 98 1013.4
20260903044021 73 249 0.0 0.0 0.00 0.00 0.00 98 1013.3
20260903043516 73 249 0.0 0.0 0.00 0.00 0.00 98 1013.4
20260903043016 73 249 0.0 0.0 0.00 0.00 0.00 98 1013.3
20260903042511 73 226 0.0 0.0 0.00 0.00 0.00 98 1013.6
20260903042006 73 228 0.0 0.0 0.00 0.00 0.00 98 1013.7
20260903041503 73 228 0.0 0.0 0.00 0.00 0.00 98 1013.7
20260903040958 73 228 0.0 0.0 0.00 0.00 0.00 97 1013.7
20260903040456 73 228 0.0 0.0 0.00 0.00 0.00 97 1013.8
20260903035953 73 228 0.0 0.0 0.00 0.00 0.00 97 1013.7
20260903035448 73 228 0.0 0.0 0.00 0.00 0.00 97 1013.7
20260903034944 74 228 0.0 1.0 0.00 0.00 0.00 97 1013.8
20260903034438 74 229 0.0 0.0 0.00 0.00 0.00 97 1013.6
20260903033933 74 229 0.0 0.0 0.00 0.00 0.00 97 1013.8
20260903033428 74 229 0.0 0.0 0.00 0.00 0.00 97 1013.9
20260903032923 74 229 0.0 0.0 0.00 0.00 0.00 97 1013.8
20260903032419 75 228 0.0 1.0 0.00 0.00 0.00 97 1013.8
20260903031914 75 227 0.0 0.0 0.00 0.00 0.00 97 1013.9
20260903031413 75 228 0.0 0.0 0.00 0.00 0.00 97 1014.0
20260903030909 75 227 0.0 0.0 0.00 0.00 0.00 96 1014.3
20260903030405 75 207 0.0 0.0 0.00 0.00 0.00 96 1014.2
20260903025900 75 207 0.0 0.0 0.00 0.00 0.00 96 1013.9
20260903025356 75 207 0.0 0.0 0.00 0.00 0.00 96 1014.1
20260903024856 75 207 0.0 0.0 0.00 0.00 0.00 96 1013.9
20260903024350 75 207 0.0 0.0 0.00 0.00 0.00 96 1014.1
20260903023845 75 207 0.0 0.0 0.00 0.00 0.00 95 1014.0
20260903023341 75 207 0.0 0.0 0.00 0.00 0.00 95 1014.1
20260903022836 76 207 0.0 0.0 0.00 0.00 0.00 95 1014.1
20260903022335 76 207 0.0 0.0 0.00 0.00 0.00 95 1014.2
20260903021828 76 207 0.0 0.0 0.00 0.00 0.00 95 1014.5
20260903021324 76 207 0.0 0.0 0.00 0.00 0.00 95 1014.1
20260903020823 76 207 0.0 0.0 0.00 0.00 0.00 95 1014.4
20260903020319 76 207 0.0 0.0 0.00 0.00 0.00 95 1014.3
20260903015814 76 207 0.0 0.0 0.00 0.00 0.00 95 1014.2
20260903015309 76 209 0.0 1.0 0.00 0.00 0.00 95 1014.4
20260903014805 77 210 0.0 0.0 0.00 0.00 0.00 95 1014.2
20260903014304 77 210 0.0 0.0 0.00 0.00 0.00 95 1014.1
20260903013759 77 209 0.0 0.0 0.00 0.00 0.00 94 1014.1
20260903013258 77 209 0.0 0.0 0.00 0.00 0.00 94 1013.8
20260903012757 77 210 0.0 0.0 0.00 0.00 0.00 94 1014.0
20260903012251 77 209 0.0 0.0 0.00 0.00 0.00 94 1014.0
20260903011746 77 210 0.0 0.0 0.00 0.00 0.00 94 1013.9
20260903011245 78 210 0.0 0.0 0.00 0.00 0.00 93 1013.9
20260903010741 78 210 0.0 0.0 0.00 0.00 0.00 93 1013.9
20260903010236 78 209 0.0 0.0 0.00 0.00 0.00 93 1013.9
20260903005735 78 210 0.0 0.0 0.00 0.00 0.00 92 1013.6
20260903005230 78 210 0.0 0.0 0.00 0.00 0.00 92 1013.7
20260903004725 78 210 0.0 0.0 0.00 0.00 0.00 92 1013.6
20260903004220 79 210 0.0 0.0 0.00 0.00 0.00 92 1013.6
20260903003716 79 210 0.0 0.0 0.00 0.00 0.00 91 1013.4
20260903003211 79 210 0.0 0.0 0.00 0.00 0.00 91 1013.6
20260903002706 79 209 0.0 0.0 0.00 0.00 0.00 91 1013.7
20260903002200 80 209 0.0 0.0 0.00 0.00 0.00 89 1013.6
20260903001655 80 210 0.0 0.0 0.00 0.00 0.00 89 1013.3
20260903001149 80 209 0.0 0.0 0.00 0.00 0.00 89 1013.3
20260903000645 81 210 0.0 0.0 0.00 0.00 0.00 89 1013.3
20260903000143 81 209 0.0 0.0 0.00 0.00 0.00 87 1013.2
20260902235637 81 209 0.0 0.0 0.00 0.00 0.00 86 1013.2
20260902235132 82 209 0.0 0.0 0.00 0.00 0.00 85 1013.3
20260902234626 82 209 0.0 0.0 0.00 0.00 0.00 84 1013.2
20260902234124 83 209 0.0 0.0 0.00 0.00 0.00 83 1013.1
20260902233620 83 209 0.0 0.0 0.00 0.00 0.00 82 1013.6
20260902233114 84 209 0.0 0.0 0.00 0.00 0.00 81 1013.3
20260902232614 85 209 0.0 0.0 0.00 0.00 0.00 81 1013.1
20260902232108 85 209 0.0 0.0 0.00 0.00 0.00 80 1013.2
20260902231608 86 209 0.0 0.0 0.00 0.00 0.00 79 1013.2
20260902231107 86 209 0.0 0.0 0.00 0.00 0.00 77 1013.1
20260902230602 87 209 0.0 0.0 0.00 0.00 0.00 75 1013.2
20260902230101 87 209 0.0 0.0 0.00 0.00 0.00 74 1013.2
20260902225556 88 209 0.0 0.0 0.00 0.00 0.00 72 1013.2
20260902225056 88 209 0.0 0.0 0.00 0.00 0.00 71 1013.1
20260902224554 89 209 0.0 0.0 0.00 0.00 0.00 68 1013.0
20260902224051 89 209 0.0 0.0 0.00 0.00 0.00 66 1013.0
20260902223547 89 209 0.0 0.0 0.00 0.00 0.00 64 1013.1
20260902223046 90 209 0.0 0.0 0.00 0.00 0.00 61 1013.1
20260902222545 90 209 0.0 0.0 0.00 0.00 0.00 60 1012.9
20260902222044 90 209 0.0 1.0 0.00 0.00 0.00 56 1013.2
20260902221538 91 209 0.0 0.0 0.00 0.00 0.00 56 1013.2
20260902221033 91 209 0.0 1.0 0.00 0.00 0.00 54 1013.1
20260902220529 91 209 0.0 1.0 0.00 0.00 0.00 53 1013.4
20260902220023 91 211 0.0 0.0 0.00 0.00 0.00 52 1013.1
20260902215519 92 213 0.0 1.0 0.00 0.00 0.00 56 1013.2
20260902215015 92 241 0.0 0.0 0.00 0.00 0.00 54 1013.2
20260902214514 92 245 0.0 0.0 0.00 0.00 0.00 56 1013.4
20260902214013 92 213 0.0 0.0 0.00 0.00 0.00 51 1013.3
20260902213509 92 224 0.0 0.0 0.00 0.00 0.00 55 1013.4
20260902213008 92 225 0.0 0.0 0.00 0.00 0.00 56 1013.3
20260902212504 93 240 0.0 0.0 0.00 0.00 0.00 55 1013.4
20260902212000 93 228 0.0 0.0 0.00 0.00 0.00 54 1013.4
20260902211456 93 231 0.0 0.0 0.00 0.00 0.00 54 1013.6
20260902210950 93 235 0.0 0.0 0.00 0.00 0.00 56 1013.4
20260902210445 94 219 0.0 1.0 0.00 0.00 0.00 55 1013.4
20260902205944 95 234 0.0 0.0 0.00 0.00 0.00 52 1013.4
20260902205439 95 235 0.0 1.0 0.00 0.00 0.00 52 1013.3
20260902204935 96 212 0.0 1.0 0.00 0.00 0.00 50 1013.4
20260902204434 97 261 1.0 1.0 0.00 0.00 0.00 46 1013.7
20260902203929 98 242 1.0 1.0 0.00 0.00 0.00 45 1013.3
20260902203425 96 271 1.0 1.0 0.00 0.00 0.00 44 1013.7
20260902202924 98 264 2.0 2.0 0.00 0.00 0.00 45 1013.4
20260902202420 99 191 1.0 1.0 0.00 0.00 0.00 45 1013.3
20260902201916 98 210 1.0 1.0 0.00 0.00 0.00 45 1013.7
20260902201411 98 174 1.0 2.0 0.00 0.00 0.00 48 1013.4
20260902200906 98 213 0.0 1.0 0.00 0.00 0.00 48 1013.6
20260902200401 98 193 1.0 1.0 0.00 0.00 0.00 48 1013.8
20260902195856 97 219 1.0 1.0 0.00 0.00 0.00 47 1013.8
20260902195356 98 216 1.0 1.0 0.00 0.00 0.00 52 1013.9
20260902194851 97 228 0.0 1.0 0.00 0.00 0.00 52 1013.8
20260902194345 96 224 1.0 1.0 0.00 0.00 0.00 51 1013.9
20260902193840 97 100 1.0 1.0 0.00 0.00 0.00 55 1013.9
20260902193336 98 142 1.0 1.0 0.00 0.00 0.00 51 1014.1
20260902192835 97 249 2.0 2.0 0.00 0.00 0.00 47 1014.1
20260902192333 97 209 1.0 1.0 0.00 0.00 0.00 47 1014.1
20260902191828 96 254 1.0 1.0 0.00 0.00 0.00 46 1014.2
20260902191323 96 249 1.0 2.0 0.00 0.00 0.00 47 1014.3
20260902190819 97 243 1.0 1.0 0.00 0.00 0.00 47 1014.3
20260902190318 96 218 1.0 1.0 0.00 0.00 0.00 48 1014.4
20260902185814 96 215 1.0 1.0 0.00 0.00 0.00 47 1014.4
20260902185309 98 252 1.0 1.0 0.00 0.00 0.00 46 1014.4
20260902184805 98 217 0.0 1.0 0.00 0.00 0.00 47 1014.3
20260902184300 98 244 0.0 1.0 0.00 0.00 0.00 49 1014.5
20260902183756 97 202 1.0 1.0 0.00 0.00 0.00 52 1014.5
20260902183252 97 225 1.0 1.0 0.00 0.00 0.00 49 1014.6
20260902182748 97 268 1.0 1.0 0.00 0.00 0.00 48 1014.6
20260902182244 97 182 1.0 1.0 0.00 0.00 0.00 49 1014.5
20260902181740 97 113 0.0 1.0 0.00 0.00 0.00 50 1014.6
20260902181240 96 245 0.0 0.0 0.00 0.00 0.00 46 1014.6
20260902180735 96 195 1.0 2.0 0.00 0.00 0.00 46 1014.7
20260902180230 96 248 1.0 1.0 0.00 0.00 0.00 49 1014.8
20260902175725 97 165 1.0 2.0 0.00 0.00 0.00 51 1014.8
20260902175221 97 191 1.0 1.0 0.00 0.00 0.00 50 1014.8
20260902174717 96 208 1.0 1.0 0.00 0.00 0.00 49 1014.8
20260902174213 96 222 0.0 1.0 0.00 0.00 0.00 57 1014.9
20260902173708 95 269 1.0 2.0 0.00 0.00 0.00 52 1015.2
20260902173203 94 255 1.0 2.0 0.00 0.00 0.00 52 1015.3
20260902172703 95 4 2.0 2.0 0.00 0.00 0.00 52 1015.1
20260902172202 95 218 1.0 1.0 0.00 0.00 0.00 53 1015.0
20260902171657 95 162 1.0 2.0 0.00 0.00 0.00 54 1015.1
20260902171153 94 226 1.0 1.0 0.00 0.00 0.00 53 1015.0
20260902170648 93 259 1.0 1.0 0.00 0.00 0.00 53 1015.3
20260902170143 94 218 1.0 1.0 0.00 0.00 0.00 53 1015.3
20260902165638 95 341 1.0 2.0 0.00 0.00 0.00 52 1015.5
20260902165133 95 207 1.0 2.0 0.00 0.00 0.00 54 1015.6
20260902164628 94 295 1.0 1.0 0.00 0.00 0.00 54 1015.5
20260902164127 93 200 0.0 0.0 0.00 0.00 0.00 58 1015.6
20260902163622 94 204 1.0 1.0 0.00 0.00 0.00 56 1015.7
20260902163122 94 22 0.0 1.0 0.00 0.00 0.00 55 1015.8
20260902162620 94 218 1.0 1.0 0.00 0.00 0.00 57 1015.6
20260902162115 93 260 1.0 1.0 0.00 0.00 0.00 56 1015.7
20260902161610 93 260 1.0 1.0 0.00 0.00 0.00 57 1016.0
20260902161106 92 228 1.0 1.0 0.00 0.00 0.00 63 1016.1
20260902160601 93 147 1.0 1.0 0.00 0.00 0.00 63 1015.9
20260902160057 93 272 1.0 2.0 0.00 0.00 0.00 60 1016.0
20260902155549 92 273 3.0 3.0 0.00 0.00 0.00 59 1016.0
20260902155048 93 270 0.0 1.0 0.00 0.00 0.00 56 1015.9
20260902154544 92 198 0.0 1.0 0.00 0.00 0.00 62 1016.0
20260902154039 92 283 0.0 1.0 0.00 0.00 0.00 61 1016.0
20260902153537 93 193 1.0 1.0 0.00 0.00 0.00 59 1015.9
20260902153033 91 252 1.0 1.0 0.00 0.00 0.00 60 1016.0
20260902152529 92 255 2.0 2.0 0.00 0.00 0.00 60 1015.9
20260902152024 92 336 0.0 1.0 0.00 0.00 0.00 58 1016.1
20260902151520 91 259 0.0 0.0 0.00 0.00 0.00 61 1016.1
20260902151019 90 260 2.0 2.0 0.00 0.00 0.00 62 1016.0
20260902150515 90 222 1.0 1.0 0.00 0.00 0.00 62 1015.8
20260902150010 89 239 1.0 1.0 0.00 0.00 0.00 67 1016.2
20260902145505 89 263 2.0 2.0 0.00 0.00 0.00 66 1016.0
20260902144959 89 271 1.0 2.0 0.00 0.00 0.00 65 1016.0
20260902144456 90 253 1.0 1.0 0.00 0.00 0.00 64 1015.9
20260902143950 89 249 0.0 0.0 0.00 0.00 0.00 70 1015.7
20260902143446 88 273 1.0 1.0 0.00 0.00 0.00 69 1016.0
20260902142940 88 235 0.0 0.0 0.00 0.00 0.00 72 1016.0
20260902142436 88 248 0.0 0.0 0.00 0.00 0.00 72 1015.9
20260902141932 87 266 0.0 1.0 0.00 0.00 0.00 71 1015.7
20260902141427 87 265 1.0 1.0 0.00 0.00 0.00 72 1015.7
20260902140926 85 246 0.0 0.0 0.00 0.00 0.00 77 1015.7
20260902140421 84 224 0.0 0.0 0.00 0.00 0.00 80 1015.7
20260902135916 84 237 0.0 0.0 0.00 0.00 0.00 79 1015.5
20260902135412 83 247 1.0 1.0 0.00 0.00 0.00 79 1015.6
20260902134910 83 235 0.0 0.0 0.00 0.00 0.00 80 1015.9
20260902134407 82 240 0.0 0.0 0.00 0.00 0.00 80 1015.8
20260902133907 82 232 0.0 0.0 0.00 0.00 0.00 82 1015.8
20260902133401 81 235 0.0 0.0 0.00 0.00 0.00 83 1015.8
20260902132856 80 217 0.0 0.0 0.00 0.00 0.00 86 1015.8
20260902132351 79 258 0.0 0.0 0.00 0.00 0.00 86 1015.8
20260902131847 80 258 0.0 0.0 0.00 0.00 0.00 87 1015.8
20260902131343 80 258 0.0 0.0 0.00 0.00 0.00 84 1015.9
20260902130842 80 260 0.0 0.0 0.00 0.00 0.00 85 1015.8
20260902130338 79 259 0.0 0.0 0.00 0.00 0.00 87 1016.0
20260902125833 78 259 0.0 0.0 0.00 0.00 0.00 90 1015.9
20260902125329 78 259 1.0 1.0 0.00 0.00 0.00 90 1015.8
20260902124825 78 259 0.0 0.0 0.00 0.00 0.00 88 1015.8
20260902124321 78 259 0.0 0.0 0.00 0.00 0.00 88 1015.8
20260902123815 78 259 0.0 0.0 0.00 0.00 0.00 89 1015.8
20260902123312 78 261 0.0 0.0 0.00 0.00 0.00 88 1015.9
20260902122810 77 256 0.0 0.0 0.00 0.00 0.00 90 1015.7
20260902122307 76 256 0.0 0.0 0.00 0.00 0.00 93 1015.6
20260902121806 76 257 1.0 1.0 0.00 0.00 0.00 92 1015.7
20260902121301 76 256 0.0 0.0 0.00 0.00 0.00 91 1015.9
20260902120757 74 256 0.0 0.0 0.00 0.00 0.00 97 1015.7
20260902120253 73 257 0.0 0.0 0.00 0.00 0.00 97 1015.8
20260902115748 75 256 0.0 0.0 0.00 0.00 0.00 99 1015.6
20260902115244 73 256 0.0 0.0 0.00 0.00 0.00 99 1015.7
20260902114740 72 257 0.0 0.0 0.00 0.00 0.00 99 1015.5
20260902114235 71 257 0.0 0.0 0.00 0.00 0.00 99 1015.4
20260902113730 71 257 0.0 0.0 0.00 0.00 0.00 99 1015.5
20260902113226 70 257 0.0 1.0 0.00 0.00 0.00 99 1015.6
20260902112725 70 257 0.0 0.0 0.00 0.00 0.00 99 1015.5
20260902112222 70 257 0.0 0.0 0.00 0.00 0.00 99 1015.4
20260902111717 70 257 0.0 0.0 0.00 0.00 0.00 99 1015.4
20260902111213 70 257 0.0 0.0 0.00 0.00 0.00 99 1015.4
20260902110709 70 257 0.0 0.0 0.00 0.00 0.00 99 1015.2
20260902110205 70 257 0.0 0.0 0.00 0.00 0.00 99 1015.3
20260902105704 70 257 0.0 0.0 0.00 0.00 0.00 99 1015.2
20260902105200 70 257 0.0 0.0 0.00 0.00 0.00 99 1015.3
20260902104655 70 257 0.0 0.0 0.00 0.00 0.00 99 1015.2
20260902104150 70 257 0.0 0.0 0.00 0.00 0.00 99 1015.2
20260902103649 70 257 0.0 0.0 0.00 0.00 0.00 99 1014.9
20260902103145 70 257 0.0 0.0 0.00 0.00 0.00 99 1015.2
20260902102641 70 257 0.0 0.0 0.00 0.00 0.00 99 1015.3
20260902102138 70 257 0.0 0.0 0.00 0.00 0.00 99 1015.4
20260902101633 71 257 0.0 0.0 0.00 0.00 0.00 99 1015.2
20260902101132 70 257 0.0 0.0 0.00 0.00 0.00 99 1015.4
20260902100627 70 257 0.0 0.0 0.00 0.00 0.00 99 1015.2
20260902100122 71 257 0.0 0.0 0.00 0.00 0.00 99 1015.2
20260902095621 71 257 0.0 0.0 0.00 0.00 0.00 99 1015.0
20260902095120 71 257 0.0 0.0 0.00 0.00 0.00 99 1015.2
20260902094616 71 257 0.0 0.0 0.00 0.00 0.00 99 1014.9
20260902094113 71 257 0.0 0.0 0.00 0.00 0.00 99 1015.1
20260902093612 71 257 0.0 0.0 0.00 0.00 0.00 99 1015.1
20260902093107 71 257 0.0 0.0 0.00 0.00 0.00 99 1015.2
20260902092606 71 257 0.0 0.0 0.00 0.00 0.00 99 1015.0